QPF
0.00 0.00 0.00 0.00 0.00 0.00 0.00 0.00 0.00 0.00 0.00 0.00 0.00 0.00 0.00 0.00 0.00 0.00 0.00 0.00 0.00 0.01 0.01 0.01 0.01 0.01 0.02 0.02 0.03 0.03 0.04 0.04 0.04 0.05 0.06 0.06 0.05 0.05 0.06 0.07 0.06 0.05 0.07 0.07
0.00 0.00 0.00 0.00 0.00 0.00 0.00 0.00 0.00 0.00 0.00 0.00 0.00 0.00 0.00 0.00 0.01 0.00 0.00 0.00 0.00 0.00 0.01 0.01 0.01 0.01 0.01 0.01 0.02 0.02 0.03 0.03 0.04 0.04 0.04 0.05 0.06 0.05 0.05 0.07 0.08 0.08 0.08 0.08
0.00 0.00 0.01 0.01 0.00 0.00 0.00 0.00 0.00 0.00 0.00 0.00 0.00 0.00 0.00 0.01 0.01 0.01 0.00 0.00 0.00 0.01 0.01 0.01 0.01 0.01 0.01 0.03 0.04 0.04 0.04 0.03 0.03 0.04 0.04 0.04 0.06 0.08 0.08 0.09 0.09 0.09 0.09 0.09
0.01 0.02 0.02 0.01 0.00 0.00 0.00 0.00 0.00 0.00 0.00 0.00 0.00 0.00 0.00 0.00 0.01 0.01 0.00 0.00 0.00 0.00 0.01 0.01 0.01 0.01 0.01 0.02 0.03 0.03 0.03 0.03 0.03 0.04 0.04 0.04 0.05 0.09 0.11 0.09 0.09 0.08 0.09 0.09
0.02 0.02 0.01 0.01 0.00 0.00 0.00 0.00 0.00 0.00 0.00 0.00 0.00 0.01 0.01 0.00 0.00 0.00 0.00 0.00 0.00 0.00 0.01 0.01 0.02 0.02 0.01 0.02 0.03 0.03 0.02 0.02 0.02 0.02 0.03 0.04 0.04 0.05 0.06 0.07 0.08 0.08 0.08 0.08
0.02 0.02 0.02 0.01 0.00 0.00 0.01 0.01 0.00 0.01 0.00 0.00 0.00 0.01 0.01 0.01 0.00 0.01 0.01 0.01 0.00 0.01 0.01 0.01 0.01 0.02 0.01 0.02 0.03 0.03 0.03 0.03 0.03 0.03 0.04 0.04 0.05 0.06 0.06 0.06 0.06 0.06 0.07 0.07
0.02 0.02 0.02 0.01 0.01 0.01 0.02 0.01 0.00 0.00 0.00 0.00 0.00 0.01 0.01 0.01 0.01 0.01 0.00 0.01 0.00 0.01 0.01 0.02 0.01 0.02 0.04 0.05 0.03 0.03 0.03 0.03 0.04 0.04 0.04 0.04 0.05 0.07 0.08 0.08 0.07 0.07 0.06 0.06
0.03 0.03 0.02 0.01 0.01 0.01 0.01 0.00 0.00 0.00 0.00 0.01 0.01 0.01 0.01 0.01 0.01 0.01 0.00 0.00 0.00 0.00 0.01 0.01 0.02 0.03 0.04 0.07 0.07 0.07 0.05 0.04 0.04 0.04 0.04 0.04 0.05 0.06 0.07 0.08 0.08 0.08 0.08 0.08
0.02 0.02 0.02 0.01 0.01 0.01 0.00 0.00 0.01 0.01 0.01 0.01 0.01 0.01 0.01 0.01 0.01 0.00 0.00 0.00 0.00 0.01 0.01 0.01 0.01 0.02 0.03 0.04 0.05 0.05 0.05 0.04 0.04 0.03 0.04 0.04 0.04 0.04 0.05 0.05 0.05 0.05 0.07 0.08
0.02 0.02 0.02 0.02 0.02 0.02 0.01 0.01 0.01 0.01 0.02 0.02 0.01 0.01 0.00 0.01 0.00 0.00 0.00 0.00 0.00 0.01 0.01 0.02 0.02 0.03 0.03 0.04 0.05 0.04 0.04 0.03 0.04 0.05 0.04 0.03 0.02 0.02 0.02 0.03 0.03 0.03 0.04 0.05
0.03 0.02 0.03 0.03 0.02 0.02 0.03 0.03 0.02 0.02 0.02 0.02 0.01 0.00 0.00 0.01 0.00 0.00 0.01 0.00 0.01 0.01 0.02 0.03 0.04 0.04 0.04 0.04 0.04 0.05 0.04 0.04 0.04 0.04 0.04 0.04 0.03 0.02 0.02 0.03 0.03 0.03 0.04 0.06
0.04 0.04 0.04 0.03 0.03 0.03 0.04 0.05 0.04 0.02 0.02 0.01 0.01 0.01 0.01 0.01 0.01 0.01 0.01 0.01 0.01 0.01 0.03 0.04 0.03 0.03 0.04 0.05 0.03 0.03 0.03 0.03 0.04 0.04 0.04 0.04 0.04 0.03 0.03 0.03 0.04 0.04 0.06 0.06
0.05 0.04 0.05 0.06 0.06 0.06 0.07 0.06 0.05 0.02 0.01 0.01 0.01 0.01 0.01 0.00 0.01 0.01 0.03 0.04 0.03 0.02 0.02 0.03 0.03 0.03 0.03 0.03 0.03 0.03 0.03 0.03 0.04 0.04 0.06 0.06 0.05 0.04 0.03 0.04 0.04 0.05 0.07 0.08
0.07 0.07 0.08 0.08 0.07 0.07 0.07 0.06 0.04 0.02 0.01 0.01 0.01 0.00 0.00 0.00 0.00 0.01 0.04 0.07 0.08 0.06 0.04 0.04 0.03 0.01 0.02 0.02 0.03 0.04 0.03 0.04 0.05 0.05 0.06 0.07 0.06 0.05 0.05 0.06 0.06 0.07 0.08 0.07
0.09 0.10 0.09 0.10 0.08 0.08 0.06 0.04 0.03 0.02 0.01 0.01 0.00 0.00 0.00 0.00 0.00 0.01 0.02 0.02 0.04 0.07 0.08 0.08 0.05 0.02 0.01 0.02 0.02 0.03 0.03 0.04 0.07 0.06 0.06 0.07 0.07 0.07 0.07 0.06 0.04 0.04 0.05 0.05
0.09 0.09 0.10 0.10 0.08 0.06 0.04 0.02 0.02 0.02 0.01 0.01 0.00 0.00 0.00 0.00 0.00 0.01 0.01 0.02 0.02 0.03 0.04 0.05 0.04 0.03 0.02 0.02 0.03 0.03 0.04 0.06 0.05 0.04 0.04 0.05 0.05 0.05 0.06 0.06 0.06 0.06 0.06 0.06
0.07 0.09 0.09 0.08 0.06 0.04 0.04 0.02 0.01 0.02 0.02 0.01 0.01 0.01 0.01 0.00 0.01 0.01 0.01 0.03 0.02 0.02 0.02 0.03 0.03 0.01 0.01 0.02 0.03 0.03 0.03 0.04 0.04 0.03 0.03 0.04 0.05 0.05 0.05 0.07 0.07 0.06 0.06 0.08
0.07 0.08 0.08 0.07 0.06 0.05 0.04 0.04 0.04 0.04 0.03 0.03 0.03 0.03 0.01 0.01 0.01 0.01 0.00 0.01 0.01 0.01 0.02 0.01 0.02 0.02 0.02 0.03 0.03 0.04 0.05 0.04 0.03 0.03 0.03 0.03 0.04 0.05 0.06 0.07 0.07 0.07 0.07 0.08
0.07 0.07 0.07 0.06 0.05 0.04 0.03 0.03 0.03 0.03 0.02 0.03 0.03 0.02 0.01 0.02 0.01 0.01 0.00 0.00 0.00 0.00 0.01 0.01 0.01 0.01 0.02 0.04 0.04 0.03 0.04 0.05 0.04 0.03 0.03 0.04 0.05 0.06 0.07 0.07 0.07 0.06 0.05 0.05
0.07 0.07 0.06 0.05 0.04 0.03 0.02 0.02 0.02 0.01 0.01 0.01 0.01 0.01 0.01 0.02 0.02 0.00 0.01 0.01 0.00 0.00 0.00 0.00 0.01 0.02 0.03 0.04 0.03 0.02 0.02 0.03 0.04 0.05 0.04 0.04 0.05 0.06 0.07 0.07 0.07 0.06 0.05 0.05
0.05 0.04 0.03 0.03 0.03 0.02 0.02 0.01 0.01 0.00 0.00 0.00 0.00 0.00 0.00 0.01 0.01 0.00 0.01 0.02 0.01 0.01 0.00 0.01 0.01 0.01 0.02 0.02 0.02 0.02 0.02 0.03 0.04 0.05 0.05 0.06 0.05 0.06 0.06 0.06 0.06 0.05 0.05 0.04
0.03 0.02 0.02 0.03 0.03 0.03 0.02 0.02 0.01 0.00 0.00 0.00 0.00 0.01 0.01 0.00 0.01 0.00 0.00 0.00 0.00 0.00 0.00 0.01 0.00 0.00 0.01 0.01 0.01 0.01 0.02 0.02 0.02 0.02 0.04 0.05 0.06 0.05 0.05 0.04 0.03 0.03 0.03 0.02
0.02 0.02 0.03 0.04 0.03 0.04 0.03 0.03 0.01 0.00 0.00 0.01 0.00 0.01 0.01 0.01 0.01 0.01 0.01 0.01 0.00 0.00 0.00 0.00 0.00 0.01 0.01 0.01 0.01 0.01 0.01 0.02 0.02 0.02 0.01 0.02 0.02 0.02 0.02 0.02 0.03 0.02 0.02 0.02
0.03 0.02 0.03 0.04 0.04 0.04 0.05 0.04 0.02 0.01 0.01 0.01 0.01 0.00 0.01 0.00 0.01 0.01 0.01 0.01 0.01 0.01 0.00 0.01 0.01 0.01 0.01 0.01 0.01 0.01 0.01 0.01 0.01 0.01 0.01 0.01 0.01 0.01 0.01 0.01 0.01 0.01 0.01 0.01
0.03 0.03 0.03 0.04 0.04 0.05 0.05 0.03 0.02 0.01 0.01 0.01 0.01 0.01 0.01 0.01 0.01 0.01 0.01 0.01 0.01 0.01 0.01 0.01 0.01 0.01 0.01 0.02 0.02 0.01 0.01 0.01 0.01 0.01 0.01 0.01 0.00 0.00 0.00 0.00 0.00 0.00 0.00 0.00
0.04 0.03 0.03 0.04 0.05 0.05 0.04 0.03 0.02 0.01 0.01 0.01 0.02 0.03 0.03 0.01 0.01 0.01 0.01 0.01 0.01 0.02 0.02 0.02 0.02 0.02 0.03 0.03 0.03 0.02 0.02 0.01 0.01 0.01 0.01 0.00 0.00 0.00 0.00 0.00 0.00 0.00 0.00 0.00
0.06 0.05 0.05 0.05 0.05 0.04 0.03 0.02 0.02 0.01 0.01 0.01 0.02 0.03 0.02 0.01 0.00 0.00 0.01 0.01 0.01 0.01 0.02 0.01 0.02 0.02 0.02 0.03 0.03 0.03 0.02 0.02 0.01 0.01 0.01 0.00 0.00 0.00 0.00 0.00 0.00 0.00 0.00 0.00
MSLP
1003.97 1004.04 1004.12 1004.17 1004.19 1004.15 1004.04 1003.87 1003.65 1003.41 1003.17 1002.98 1002.89 1002.90 1003.03 1003.28 1003.62 1004.04 1004.48 1004.91 1005.32 1005.70 1006.03 1006.32 1006.60 1006.87 1007.14 1007.40 1007.65 1007.85 1007.98 1008.02 1007.95 1007.78 1007.51 1007.17 1006.80 1006.44 1006.13 1005.92 1005.82 1005.84 1005.99 1006.25
1003.72 1003.68 1003.62 1003.53 1003.41 1003.24 1003.04 1002.81 1002.58 1002.37 1002.22 1002.14 1002.17 1002.31 1002.56 1002.91 1003.32 1003.76 1004.22 1004.65 1005.06 1005.42 1005.74 1006.05 1006.33 1006.62 1006.90 1007.16 1007.40 1007.57 1007.65 1007.63 1007.49 1007.24 1006.89 1006.48 1006.04 1005.62 1005.27 1005.02 1004.90 1004.91 1005.06 1005.34
1003.46 1003.33 1003.16 1002.95 1002.69 1002.41 1002.11 1001.82 1001.56 1001.37 1001.26 1001.27 1001.39 1001.64 1001.98 1002.40 1002.87 1003.36 1003.83 1004.27 1004.67 1005.03 1005.36 1005.67 1005.97 1006.27 1006.57 1006.84 1007.07 1007.23 1007.29 1007.24 1007.06 1006.76 1006.37 1005.91 1005.44 1004.99 1004.62 1004.35 1004.21 1004.22 1004.38 1004.67
1003.24 1003.04 1002.78 1002.48 1002.12 1001.74 1001.35 1000.99 1000.69 1000.48 1000.40 1000.44 1000.63 1000.95 1001.37 1001.86 1002.38 1002.90 1003.40 1003.86 1004.27 1004.63 1004.97 1005.29 1005.60 1005.91 1006.21 1006.49 1006.72 1006.88 1006.94 1006.88 1006.70 1006.40 1006.01 1005.55 1005.08 1004.64 1004.27 1004.01 1003.87 1003.88 1004.03 1004.32
1003.10 1002.86 1002.55 1002.18 1001.75 1001.29 1000.82 1000.40 1000.05 999.82 999.73 999.79 1000.02 1000.38 1000.85 1001.39 1001.96 1002.53 1003.06 1003.54 1003.96 1004.34 1004.68 1005.00 1005.31 1005.62 1005.92 1006.20 1006.43 1006.60 1006.67 1006.62 1006.47 1006.20 1005.85 1005.44 1005.01 1004.61 1004.28 1004.04 1003.91 1003.92 1004.07 1004.35
1003.05 1002.81 1002.48 1002.09 1001.62 1001.11 1000.59 1000.12 999.73 999.47 999.36 999.43 999.67 1000.06 1000.56 1001.14 1001.75 1002.36 1002.92 1003.43 1003.87 1004.26 1004.60 1004.91 1005.21 1005.50 1005.78 1006.04 1006.26 1006.43 1006.51 1006.50 1006.38 1006.17 1005.89 1005.55 1005.20 1004.87 1004.59 1004.40 1004.31 1004.33 1004.46 1004.72
1003.09 1002.87 1002.57 1002.18 1001.72 1001.21 1000.69 1000.20 999.79 999.51 999.39 999.45 999.69 1000.09 1000.61 1001.22 1001.86 1002.50 1003.09 1003.62 1004.07 1004.46 1004.78 1005.07 1005.34 1005.59 1005.83 1006.05 1006.25 1006.39 1006.48 1006.49 1006.43 1006.28 1006.08 1005.83 1005.58 1005.34 1005.14 1005.00 1004.95 1004.98 1005.12 1005.34
1003.18 1003.01 1002.77 1002.45 1002.05 1001.59 1001.10 1000.64 1000.25 999.97 999.85 999.90 1000.14 1000.54 1001.06 1001.68 1002.33 1002.98 1003.58 1004.12 1004.57 1004.95 1005.25 1005.50 1005.71 1005.90 1006.08 1006.24 1006.38 1006.49 1006.56 1006.58 1006.55 1006.46 1006.34 1006.18 1006.02 1005.87 1005.76 1005.69 1005.69 1005.75 1005.89 1006.10
1003.30 1003.21 1003.06 1002.84 1002.55 1002.18 1001.79 1001.39 1001.05 1000.81 1000.71 1000.76 1000.99 1001.38 1001.89 1002.49 1003.13 1003.77 1004.37 1004.90 1005.34 1005.68 1005.94 1006.14 1006.28 1006.39 1006.47 1006.55 1006.61 1006.66 1006.68 1006.69 1006.67 1006.62 1006.55 1006.47 1006.40 1006.34 1006.31 1006.31 1006.36 1006.47 1006.62 1006.83
1003.42 1003.43 1003.41 1003.33 1003.17 1002.95 1002.68 1002.39 1002.14 1001.96 1001.88 1001.95 1002.17 1002.53 1003.02 1003.58 1004.19 1004.80 1005.37 1005.86 1006.26 1006.56 1006.77 1006.89 1006.95 1006.96 1006.95 1006.91 1006.87 1006.83 1006.79 1006.75 1006.71 1006.67 1006.63 1006.61 1006.60 1006.62 1006.66 1006.74 1006.86 1007.01 1007.20 1007.41
1003.56 1003.68 1003.79 1003.87 1003.88 1003.82 1003.70 1003.55 1003.40 1003.29 1003.26 1003.35 1003.55 1003.88 1004.32 1004.83 1005.38 1005.93 1006.45 1006.89 1007.24 1007.48 1007.62 1007.67 1007.64 1007.55 1007.42 1007.27 1007.12 1006.98 1006.84 1006.73 1006.64 1006.58 1006.55 1006.55 1006.59 1006.67 1006.78 1006.93 1007.11 1007.32 1007.55 1007.81
1003.75 1003.98 1004.22 1004.45 1004.62 1004.73 1004.76 1004.75 1004.71 1004.69 1004.71 1004.80 1004.99 1005.28 1005.65 1006.10 1006.57 1007.05 1007.50 1007.88 1008.16 1008.35 1008.42 1008.39 1008.28 1008.09 1007.86 1007.60 1007.33 1007.07 1006.84 1006.64 1006.49 1006.39 1006.34 1006.35 1006.42 1006.54 1006.71 1006.92 1007.17 1007.44 1007.73 1008.03
1004.02 1004.35 1004.72 1005.08 1005.39 1005.64 1005.81 1005.92 1005.98 1006.03 1006.09 1006.19 1006.36 1006.60 1006.91 1007.28 1007.68 1008.08 1008.46 1008.77 1008.99 1009.11 1009.13 1009.03 1008.84 1008.58 1008.25 1007.89 1007.52 1007.16 1006.83 1006.55 1006.33 1006.19 1006.12 1006.13 1006.21 1006.37 1006.59 1006.85 1007.16 1007.50 1007.84 1008.19
1004.43 1004.84 1005.30 1005.75 1006.17 1006.52 1006.79 1006.99 1007.13 1007.23 1007.32 1007.43 1007.57 1007.77 1008.03 1008.33 1008.65 1008.99 1009.29 1009.54 1009.71 1009.79 1009.75 1009.61 1009.37 1009.04 1008.64 1008.20 1007.75 1007.31 1006.91 1006.57 1006.30 1006.12 1006.03 1006.04 1006.14 1006.33 1006.59 1006.91 1007.26 1007.65 1008.04 1008.43
1005.00 1005.47 1005.97 1006.48 1006.95 1007.36 1007.69 1007.94 1008.13 1008.26 1008.37 1008.48 1008.61 1008.78 1008.98 1009.23 1009.50 1009.78 1010.03 1010.24 1010.37 1010.41 1010.34 1010.17 1009.89 1009.53 1009.09 1008.61 1008.11 1007.62 1007.18 1006.80 1006.50 1006.31 1006.22 1006.24 1006.37 1006.58 1006.88 1007.24 1007.63 1008.05 1008.47 1008.88
1005.73 1006.22 1006.73 1007.24 1007.72 1008.14 1008.49 1008.76 1008.97 1009.12 1009.24 1009.35 1009.48 1009.63 1009.82 1010.03 1010.27 1010.51 1010.73 1010.91 1011.02 1011.04 1010.95 1010.77 1010.48 1010.10 1009.65 1009.15 1008.64 1008.15 1007.70 1007.32 1007.03 1006.85 1006.78 1006.83 1006.99 1007.24 1007.56 1007.94 1008.36 1008.79 1009.21 1009.61
1006.60 1007.07 1007.56 1008.04 1008.48 1008.88 1009.21 1009.47 1009.68 1009.84 1009.98 1010.10 1010.23 1010.39 1010.57 1010.78 1011.00 1011.23 1011.43 1011.60 1011.69 1011.70 1011.62 1011.44 1011.15 1010.78 1010.35 1009.86 1009.37 1008.90 1008.48 1008.14 1007.89 1007.75 1007.73 1007.82 1008.02 1008.30 1008.65 1009.04 1009.45 1009.86 1010.26 1010.63
1007.54 1007.98 1008.42 1008.84 1009.23 1009.57 1009.86 1010.11 1010.31 1010.48 1010.63 1010.78 1010.93 1011.10 1011.30 1011.51 1011.74 1011.96 1012.16 1012.32 1012.41 1012.42 1012.34 1012.17 1011.90 1011.56 1011.15 1010.71 1010.27 1009.85 1009.49 1009.21 1009.02 1008.95 1008.99 1009.13 1009.37 1009.68 1010.04 1010.43 1010.83 1011.20 1011.55 1011.85
1008.49 1008.88 1009.25 1009.61 1009.93 1010.22 1010.48 1010.70 1010.90 1011.08 1011.25 1011.43 1011.61 1011.81 1012.03 1012.25 1012.49 1012.71 1012.91 1013.06 1013.15 1013.16 1013.09 1012.93 1012.69 1012.38 1012.02 1011.64 1011.26 1010.92 1010.63 1010.43 1010.32 1010.32 1010.42 1010.63 1010.90 1011.24 1011.60 1011.97 1012.33 1012.65 1012.93 1013.16
1009.37 1009.71 1010.03 1010.32 1010.59 1010.84 1011.07 1011.28 1011.48 1011.67 1011.87 1012.07 1012.29 1012.51 1012.75 1012.99 1013.22 1013.44 1013.62 1013.76 1013.84 1013.85 1013.79 1013.65 1013.44 1013.17 1012.87 1012.56 1012.25 1011.99 1011.79 1011.67 1011.65 1011.72 1011.88 1012.13 1012.43 1012.77 1013.13 1013.47 1013.78 1014.04 1014.25 1014.40
1010.13 1010.43 1010.70 1010.95 1011.19 1011.41 1011.62 1011.84 1012.05 1012.27 1012.49 1012.72 1012.95 1013.19 1013.43 1013.67 1013.89 1014.09 1014.26 1014.38 1014.45 1014.45 1014.40 1014.28 1014.10 1013.89 1013.65 1013.40 1013.18 1013.00 1012.88 1012.84 1012.88 1013.01 1013.22 1013.49 1013.81 1014.15 1014.48 1014.79 1015.05 1015.25 1015.39 1015.48
1010.74 1011.01 1011.25 1011.48 1011.70 1011.92 1012.14 1012.37 1012.60 1012.84 1013.09 1013.33 1013.57 1013.81 1014.04 1014.26 1014.45 1014.62 1014.76 1014.86 1014.91 1014.92 1014.88 1014.79 1014.66 1014.50 1014.33 1014.16 1014.01 1013.91 1013.86 1013.88 1013.97 1014.14 1014.37 1014.65 1014.96 1015.28 1015.58 1015.85 1016.07 1016.22 1016.32 1016.37
1011.18 1011.43 1011.67 1011.90 1012.13 1012.36 1012.60 1012.86 1013.12 1013.38 1013.63 1013.88 1014.12 1014.34 1014.54 1014.72 1014.88 1015.01 1015.12 1015.20 1015.24 1015.26 1015.24 1015.19 1015.11 1015.02 1014.92 1014.83 1014.76 1014.72 1014.73 1014.79 1014.91 1015.09 1015.32 1015.59 1015.87 1016.16 1016.43 1016.66 1016.85 1016.98 1017.06 1017.09
1011.46 1011.71 1011.96 1012.21 1012.46 1012.72 1013.00 1013.28 1013.56 1013.84 1014.10 1014.34 1014.56 1014.75 1014.91 1015.06 1015.17 1015.27 1015.36 1015.42 1015.47 1015.51 1015.53 1015.54 1015.53 1015.51 1015.49 1015.47 1015.46 1015.48 1015.53 1015.62 1015.74 1015.91 1016.12 1016.36 1016.61 1016.86 1017.10 1017.30 1017.47 1017.60 1017.68 1017.72
1011.62 1011.88 1012.15 1012.42 1012.71 1013.01 1013.32 1013.63 1013.93 1014.22 1014.48 1014.71 1014.90 1015.06 1015.19 1015.29 1015.38 1015.45 1015.52 1015.60 1015.67 1015.74 1015.82 1015.89 1015.96 1016.03 1016.08 1016.14 1016.19 1016.25 1016.32 1016.42 1016.53 1016.68 1016.85 1017.04 1017.25 1017.47 1017.68 1017.87 1018.04 1018.17 1018.28 1018.36
1011.72 1011.99 1012.28 1012.58 1012.90 1013.24 1013.58 1013.92 1014.24 1014.53 1014.79 1015.01 1015.18 1015.31 1015.41 1015.49 1015.56 1015.63 1015.70 1015.79 1015.91 1016.04 1016.18 1016.33 1016.48 1016.63 1016.76 1016.88 1016.98 1017.07 1017.16 1017.24 1017.34 1017.45 1017.58 1017.72 1017.89 1018.07 1018.26 1018.45 1018.63 1018.79 1018.94 1019.06
1011.81 1012.09 1012.40 1012.73 1013.08 1013.45 1013.82 1014.18 1014.52 1014.82 1015.08 1015.29 1015.45 1015.57 1015.66 1015.73 1015.79 1015.87 1015.97 1016.09 1016.25 1016.44 1016.65 1016.88 1017.11 1017.33 1017.52 1017.69 1017.83 1017.94 1018.03 1018.11 1018.17 1018.25 1018.33 1018.44 1018.58 1018.73 1018.91 1019.10 1019.30 1019.49 1019.68 1019.85
Thickness
5747 5757 5757 5754 5755 5758 5759 5765 5764 5769 5771 5772 5771 5770 5769 5769 5768 5767 5764 5763 5761 5759 5757 5756 5755 5754 5754 5753 5751 5750 5748 5746 5746 5746 5746 5746 5745 5743 5742 5741 5741 5740 5738 5737
5732 5745 5749 5747 5754 5758 5760 5765 5768 5769 5766 5773 5770 5768 5763 5763 5762 5761 5759 5758 5757 5756 5753 5752 5751 5751 5750 5749 5748 5746 5745 5744 5744 5743 5743 5743 5743 5741 5740 5739 5739 5738 5736 5735
5723 5736 5736 5729 5745 5751 5756 5764 5766 5762 5764 5763 5759 5756 5756 5756 5756 5756 5755 5754 5753 5751 5750 5749 5749 5748 5746 5746 5745 5743 5742 5741 5740 5740 5739 5739 5740 5739 5737 5736 5735 5734 5734 5733
5724 5722 5707 5733 5752 5755 5753 5755 5762 5763 5761 5759 5755 5751 5751 5752 5751 5749 5749 5748 5747 5747 5746 5746 5746 5744 5744 5743 5741 5739 5738 5737 5737 5736 5736 5736 5736 5735 5734 5733 5733 5732 5731 5731
5718 5713 5717 5727 5740 5746 5744 5741 5752 5752 5751 5749 5747 5743 5738 5741 5742 5741 5741 5740 5740 5741 5741 5740 5740 5739 5738 5738 5737 5735 5733 5733 5733 5733 5732 5731 5730 5730 5729 5729 5728 5728 5728 5727
5711 5707 5706 5726 5739 5747 5744 5730 5744 5746 5743 5742 5744 5739 5729 5730 5732 5731 5732 5733 5734 5735 5735 5733 5733 5734 5732 5731 5731 5729 5729 5729 5729 5729 5728 5728 5727 5726 5726 5725 5725 5725 5724 5723
5702 5705 5716 5725 5734 5736 5722 5729 5739 5741 5739 5740 5739 5738 5726 5724 5723 5723 5724 5725 5726 5727 5725 5725 5727 5727 5725 5724 5723 5723 5724 5724 5724 5724 5723 5723 5723 5722 5722 5721 5721 5720 5719 5719
5696 5697 5702 5716 5723 5722 5722 5732 5735 5733 5734 5731 5725 5721 5717 5715 5713 5714 5715 5717 5718 5717 5716 5717 5718 5719 5717 5716 5717 5718 5718 5717 5717 5716 5717 5718 5717 5717 5717 5716 5714 5714 5713 5712
5691 5691 5694 5706 5709 5712 5719 5721 5724 5725 5723 5719 5714 5710 5707 5705 5705 5705 5706 5707 5709 5708 5707 5707 5708 5709 5708 5708 5710 5711 5711 5710 5710 5710 5711 5711 5711 5710 5710 5709 5709 5708 5707 5706
5678 5680 5685 5693 5699 5704 5710 5712 5714 5714 5713 5710 5704 5701 5698 5696 5696 5696 5697 5697 5698 5698 5697 5696 5697 5698 5699 5701 5703 5704 5704 5703 5703 5703 5703 5704 5704 5704 5703 5703 5702 5702 5701 5700
5668 5671 5676 5682 5688 5694 5698 5701 5701 5701 5700 5697 5695 5691 5689 5687 5687 5687 5687 5687 5688 5687 5686 5686 5687 5688 5690 5692 5695 5696 5696 5695 5695 5695 5695 5693 5692 5690 5691 5689 5691 5692 5692 5693
5666 5668 5673 5672 5678 5684 5686 5688 5689 5688 5686 5686 5684 5682 5681 5679 5677 5677 5677 5677 5677 5677 5676 5677 5678 5678 5680 5682 5684 5685 5686 5686 5686 5686 5685 5684 5682 5677 5672 5673 5673 5674 5675 5677
5662 5666 5667 5667 5669 5672 5673 5675 5676 5676 5675 5674 5673 5673 5671 5669 5668 5667 5667 5666 5666 5666 5666 5667 5668 5668 5670 5672 5674 5675 5674 5674 5675 5675 5674 5673 5672 5670 5667 5662 5660 5660 5660 5661
5654 5656 5653 5655 5657 5660 5661 5662 5663 5662 5662 5663 5663 5662 5661 5660 5658 5657 5656 5656 5656 5656 5657 5657 5658 5657 5659 5661 5663 5663 5664 5663 5663 5663 5663 5662 5662 5661 5660 5658 5656 5652 5647 5646
5644 5648 5646 5646 5647 5649 5650 5651 5650 5650 5650 5651 5651 5652 5651 5649 5647 5647 5646 5647 5647 5647 5646 5647 5646 5646 5648 5650 5651 5651 5652 5652 5652 5652 5652 5651 5651 5651 5649 5646 5644 5642 5639 5636
5634 5637 5638 5638 5638 5640 5641 5641 5642 5640 5641 5641 5641 5640 5640 5639 5638 5638 5638 5637 5637 5636 5635 5635 5635 5635 5637 5639 5640 5640 5639 5638 5640 5641 5641 5640 5639 5639 5637 5634 5633 5631 5628 5625
5627 5627 5628 5628 5629 5631 5632 5633 5634 5633 5632 5632 5631 5630 5630 5630 5628 5627 5626 5626 5626 5626 5626 5626 5626 5627 5629 5630 5631 5632 5631 5629 5628 5629 5628 5627 5626 5625 5623 5622 5620 5617 5613 5609
5623 5624 5624 5624 5624 5624 5623 5624 5625 5624 5623 5623 5623 5622 5622 5620 5619 5617 5617 5618 5617 5617 5616 5616 5617 5618 5619 5620 5621 5622 5621 5620 5619 5618 5616 5615 5614 5613 5611 5609 5607 5604 5600 5598
5615 5616 5617 5617 5617 5618 5617 5616 5616 5616 5616 5615 5615 5613 5612 5611 5611 5610 5611 5611 5610 5608 5606 5606 5606 5610 5610 5610 5611 5611 5611 5610 5609 5607 5606 5602 5603 5601 5599 5597 5594 5590 5588 5585
5608 5609 5610 5610 5610 5610 5610 5610 5609 5608 5607 5607 5606 5605 5603 5602 5603 5602 5602 5601 5599 5598 5598 5597 5600 5601 5601 5600 5602 5603 5602 5601 5599 5597 5595 5593 5591 5588 5585 5583 5580 5577 5574 5570
5602 5603 5603 5603 5603 5603 5603 5603 5602 5600 5600 5599 5598 5597 5595 5595 5595 5595 5595 5592 5587 5588 5589 5589 5591 5591 5591 5590 5591 5592 5591 5589 5588 5585 5583 5581 5578 5575 5572 5568 5565 5562 5559 5556
5596 5597 5598 5597 5597 5596 5595 5596 5595 5594 5593 5592 5591 5590 5588 5587 5586 5585 5583 5582 5580 5578 5583 5583 5581 5577 5579 5580 5582 5580 5579 5578 5576 5573 5571 5568 5565 5561 5558 5555 5552 5549 5545 5542
5590 5591 5591 5591 5590 5590 5588 5588 5587 5586 5585 5584 5583 5583 5582 5581 5581 5579 5575 5572 5573 5570 5572 5568 5564 5565 5567 5572 5571 5569 5568 5566 5563 5561 5558 5554 5552 5549 5545 5542 5539 5535 5532 5528
5583 5583 5584 5584 5584 5583 5581 5580 5580 5578 5577 5576 5575 5575 5574 5574 5571 5569 5565 5559 5560 5561 5560 5554 5554 5556 5559 5563 5560 5558 5556 5554 5551 5549 5546 5543 5540 5536 5532 5528 5525 5521 5518 5514
5577 5577 5577 5578 5577 5576 5573 5573 5572 5571 5571 5570 5568 5567 5567 5565 5563 5560 5557 5554 5551 5553 5552 5547 5546 5548 5552 5551 5549 5546 5543 5540 5538 5535 5532 5529 5526 5521 5517 5514 5510 5507 5504 5501
5571 5572 5571 5572 5572 5571 5571 5570 5569 5567 5566 5563 5561 5559 5558 5555 5553 5552 5550 5548 5546 5544 5545 5543 5541 5541 5540 5538 5535 5532 5529 5526 5524 5521 5518 5515 5511 5507 5504 5500 5496 5494 5492 5489
5565 5564 5564 5564 5564 5565 5565 5564 5562 5560 5559 5557 5554 5552 5550 5548 5547 5545 5543 5541 5539 5538 5536 5534 5532 5531 5528 5525 5522 5519 5516 5512 5509 5506 5503 5501 5497 5494 5490 5487 5485 5482 5480 5478